Time,TemperatureF,DewpointF,PressureIn,WindDirection,WindDirectionDegrees,WindSpeedMPH,WindSpeedGustMPH,Humidity,HourlyPrecipIn,Conditions,Clouds,dailyrainin,SoftwareType,DateUTC
2013-05-09 00:03:00,58.1,56.7,27.76,North,-999,0.0,0.0,95,0.00,,,-99.99,FreeWX-Wi 1.01,2013-05-09 05:03:00,
2013-05-09 00:08:00,57.9,56.8,27.76,North,-999,0.0,0.0,96,0.00,,,-99.99,FreeWX-Wi 1.01,2013-05-09 05:08:00,
2013-05-09 00:13:00,57.9,56.8,27.76,North,-999,0.0,0.0,96,0.00,,,-99.99,FreeWX-Wi 1.01,2013-05-09 05:13:00,
2013-05-09 00:18:00,57.9,56.8,27.76,North,-999,0.0,0.0,96,0.00,,,-99.99,FreeWX-Wi 1.01,2013-05-09 05:18:00,
2013-05-09 00:24:00,57.7,56.7,27.76,North,-999,0.0,0.0,96,0.00,,,-99.99,FreeWX-Wi 1.01,2013-05-09 05:24:00,
2013-05-09 00:29:00,57.7,56.7,27.76,North,-999,0.0,0.0,96,0.00,,,-99.99,FreeWX-Wi 1.01,2013-05-09 05:29:00,
2013-05-09 00:34:00,57.6,56.7,27.76,North,-999,0.0,0.0,97,0.00,,,-99.99,FreeWX-Wi 1.01,2013-05-09 05:34:00,
2013-05-09 00:39:00,57.6,56.7,27.76,North,-999,0.0,0.0,97,0.00,,,-99.99,FreeWX-Wi 1.01,2013-05-09 05:39:00,
2013-05-09 00:44:00,57.6,57.0,27.76,North,-999,0.0,0.0,98,0.00,,,-99.99,FreeWX-Wi 1.01,2013-05-09 05:44:00,
2013-05-09 00:49:00,57.4,56.8,27.76,North,-999,0.0,0.0,98,0.00,,,-99.99,FreeWX-Wi 1.01,2013-05-09 05:49:00,
2013-05-09 00:54:00,57.4,56.8,27.76,North,-999,0.0,0.0,98,0.00,,,-99.99,FreeWX-Wi 1.01,2013-05-09 05:54:00,
2013-05-09 00:59:00,57.4,56.8,27.76,North,-999,0.0,0.0,98,0.00,,,-99.99,FreeWX-Wi 1.01,2013-05-09 05:59:00,
2013-05-09 01:04:00,57.4,56.8,27.76,North,-999,0.0,0.0,98,0.00,,,-99.99,FreeWX-Wi 1.01,2013-05-09 06:04:00,
2013-05-09 01:09:00,57.4,56.8,27.76,North,-999,0.0,0.0,98,0.00,,,-99.99,FreeWX-Wi 1.01,2013-05-09 06:09:00,
2013-05-09 01:15:00,57.6,57.0,27.76,North,-999,0.0,0.0,98,0.00,,,-99.99,FreeWX-Wi 1.01,2013-05-09 06:15:00,
2013-05-09 01:20:00,57.6,57.0,27.76,North,-999,0.0,0.0,98,0.00,,,-99.99,FreeWX-Wi 1.01,2013-05-09 06:20:00,
2013-05-09 01:25:00,57.6,57.0,27.76,North,-999,0.0,0.0,98,0.00,,,-99.99,FreeWX-Wi 1.01,2013-05-09 06:25:00,
2013-05-09 01:30:00,57.6,57.0,27.76,North,-999,0.0,0.0,98,0.00,,,-99.99,FreeWX-Wi 1.01,2013-05-09 06:30:00,
2013-05-09 01:35:00,57.6,56.7,27.73,North,-999,0.0,0.0,97,0.00,,,-99.99,FreeWX-Wi 1.01,2013-05-09 06:35:00,
2013-05-09 01:40:00,57.6,56.5,27.73,North,-999,0.0,0.0,96,0.00,,,-99.99,FreeWX-Wi 1.01,2013-05-09 06:40:00,
2013-05-09 01:45:00,57.4,56.3,27.73,North,-999,0.0,0.0,96,0.00,,,-99.99,FreeWX-Wi 1.01,2013-05-09 06:45:00,
2013-05-09 01:50:00,57.4,55.9,27.73,North,-999,0.0,0.0,95,0.00,,,-99.99,FreeWX-Wi 1.01,2013-05-09 06:50:00,
2013-05-09 01:55:00,57.2,56.1,27.73,North,-999,0.0,0.0,96,0.00,,,-99.99,FreeWX-Wi 1.01,2013-05-09 06:55:00,
2013-05-09 02:00:00,57.2,56.1,27.73,North,-999,0.0,0.0,96,0.00,,,-99.99,FreeWX-Wi 1.01,2013-05-09 07:00:00,
2013-05-09 02:05:00,57.2,56.1,27.73,North,-999,0.0,0.0,96,0.00,,,-99.99,FreeWX-Wi 1.01,2013-05-09 07:05:00,
2013-05-09 02:10:00,57.2,56.1,27.73,North,-999,0.0,0.0,96,0.00,,,-99.99,FreeWX-Wi 1.01,2013-05-09 07:10:00,
2013-05-09 02:15:00,57.2,56.1,27.73,North,-999,0.0,0.0,96,0.00,,,-99.99,FreeWX-Wi 1.01,2013-05-09 07:15:00,
2013-05-09 02:21:00,57.4,56.5,27.73,North,-999,0.0,0.0,97,0.00,,,-99.99,FreeWX-Wi 1.01,2013-05-09 07:21:00,
2013-05-09 02:26:00,57.2,56.3,27.73,North,-999,0.0,0.0,97,0.00,,,-99.99,FreeWX-Wi 1.01,2013-05-09 07:26:00,
2013-05-09 02:31:00,57.2,56.1,27.73,North,-999,0.0,0.0,96,0.00,,,-99.99,FreeWX-Wi 1.01,2013-05-09 07:31:00,
2013-05-09 02:36:00,57.2,56.3,27.73,North,-999,0.0,0.0,97,0.00,,,-99.99,FreeWX-Wi 1.01,2013-05-09 07:36:00,
2013-05-09 02:41:00,57.0,56.1,27.73,North,-999,0.0,0.0,97,0.00,,,-99.99,FreeWX-Wi 1.01,2013-05-09 07:41:00,
2013-05-09 02:46:00,57.0,56.5,27.73,North,-999,0.0,0.0,98,0.00,,,-99.99,FreeWX-Wi 1.01,2013-05-09 07:46:00,
2013-05-09 02:51:00,56.8,56.3,27.73,North,-999,0.0,0.0,98,0.00,,,-99.99,FreeWX-Wi 1.01,2013-05-09 07:51:00,
2013-05-09 02:56:00,56.8,56.3,27.73,North,-999,0.0,0.0,98,0.00,,,-99.99,FreeWX-Wi 1.01,2013-05-09 07:56:00,
2013-05-09 03:01:00,56.8,56.3,27.73,North,-999,0.0,0.0,98,0.00,,,-99.99,FreeWX-Wi 1.01,2013-05-09 08:01:00,
2013-05-09 03:06:00,56.7,56.1,27.73,North,-999,0.0,0.0,98,0.00,,,-99.99,FreeWX-Wi 1.01,2013-05-09 08:06:00,
2013-05-09 03:11:00,56.7,56.1,27.73,North,-999,0.0,0.0,98,0.00,,,-99.99,FreeWX-Wi 1.01,2013-05-09 08:11:00,
2013-05-09 03:16:00,56.7,56.1,27.73,North,-999,0.0,0.0,98,0.00,,,-99.99,FreeWX-Wi 1.01,2013-05-09 08:16:00,
2013-05-09 03:22:00,56.7,56.1,27.73,North,-999,0.0,0.0,98,0.00,,,-99.99,FreeWX-Wi 1.01,2013-05-09 08:22:00,
2013-05-09 03:27:00,56.7,56.1,27.73,North,-999,0.0,0.0,98,0.00,,,-99.99,FreeWX-Wi 1.01,2013-05-09 08:27:00,
2013-05-09 03:32:00,56.7,56.1,27.73,North,-999,0.0,0.0,98,0.00,,,-99.99,FreeWX-Wi 1.01,2013-05-09 08:32:00,
2013-05-09 03:37:00,56.7,55.8,27.73,North,-999,0.0,0.0,97,0.00,,,-99.99,FreeWX-Wi 1.01,2013-05-09 08:37:00,
2013-05-09 03:42:00,56.7,55.8,27.73,North,-999,0.0,0.0,97,0.00,,,-99.99,FreeWX-Wi 1.01,2013-05-09 08:42:00,
2013-05-09 03:47:00,56.7,55.8,27.73,North,-999,0.0,0.0,97,0.00,,,-99.99,FreeWX-Wi 1.01,2013-05-09 08:47:00,
2013-05-09 03:52:00,56.7,55.6,27.70,North,-999,0.0,0.0,96,0.00,,,-99.99,FreeWX-Wi 1.01,2013-05-09 08:52:00,
2013-05-09 03:57:00,56.5,55.4,27.70,North,-999,0.0,0.0,96,0.00,,,-99.99,FreeWX-Wi 1.01,2013-05-09 08:57:00,
2013-05-09 04:03:00,56.5,55.4,27.70,North,-999,0.0,0.0,96,0.00,,,-99.99,FreeWX-Wi 1.01,2013-05-09 09:03:00,
2013-05-09 04:08:00,56.5,55.6,27.70,North,-999,0.0,0.0,97,0.00,,,-99.99,FreeWX-Wi 1.01,2013-05-09 09:08:00,
2013-05-09 04:13:00,56.5,55.6,27.70,North,-999,0.0,0.0,97,0.00,,,-99.99,FreeWX-Wi 1.01,2013-05-09 09:13:00,
2013-05-09 04:18:00,56.7,55.8,27.70,North,-999,0.0,0.0,97,0.00,,,-99.99,FreeWX-Wi 1.01,2013-05-09 09:18:00,
2013-05-09 04:23:00,56.7,55.8,27.70,North,-999,0.0,0.0,97,0.00,,,-99.99,FreeWX-Wi 1.01,2013-05-09 09:23:00,
2013-05-09 04:28:00,56.7,55.8,27.70,North,-999,0.0,0.0,97,0.00,,,-99.99,FreeWX-Wi 1.01,2013-05-09 09:28:00,
2013-05-09 04:33:00,56.7,55.8,27.70,North,-999,0.0,0.0,97,0.00,,,-99.99,FreeWX-Wi 1.01,2013-05-09 09:33:00,
2013-05-09 04:38:00,56.7,55.8,27.70,North,-999,0.0,0.0,97,0.00,,,-99.99,FreeWX-Wi 1.01,2013-05-09 09:38:00,
2013-05-09 04:43:00,56.7,55.8,27.70,North,-999,0.0,0.0,97,0.00,,,-99.99,FreeWX-Wi 1.01,2013-05-09 09:43:00,
2013-05-09 04:48:00,56.8,55.8,27.70,North,-999,0.0,0.0,96,0.00,,,-99.99,FreeWX-Wi 1.01,2013-05-09 09:48:00,
2013-05-09 04:53:00,56.8,55.0,27.70,North,-999,0.0,0.0,94,0.00,,,-99.99,FreeWX-Wi 1.01,2013-05-09 09:53:00,
2013-05-09 04:58:00,57.0,55.0,27.70,North,-999,0.0,0.0,93,0.00,,,-99.99,FreeWX-Wi 1.01,2013-05-09 09:58:00,
2013-05-09 05:03:00,57.0,54.7,27.70,North,-999,0.0,0.0,92,0.00,,,-99.99,FreeWX-Wi 1.01,2013-05-09 10:03:00,
2013-05-09 05:09:00,57.0,54.5,27.70,North,-999,0.0,0.0,91,0.00,,,-99.99,FreeWX-Wi 1.01,2013-05-09 10:09:00,
2013-05-09 05:14:00,57.0,54.1,27.70,North,-999,0.0,0.0,90,0.00,,,-99.99,FreeWX-Wi 1.01,2013-05-09 10:14:00,
2013-05-09 05:19:00,56.8,54.3,27.70,North,-999,0.0,0.0,91,0.00,,,-99.99,FreeWX-Wi 1.01,2013-05-09 10:19:00,
2013-05-09 05:24:00,56.7,54.3,27.70,North,-999,0.0,0.0,92,0.00,,,-99.99,FreeWX-Wi 1.01,2013-05-09 10:24:00,
2013-05-09 05:29:00,56.7,54.3,27.70,North,-999,0.0,0.0,92,0.00,,,-99.99,FreeWX-Wi 1.01,2013-05-09 10:29:00,
2013-05-09 05:34:00,56.7,54.7,27.67,North,-999,0.0,0.0,93,0.00,,,-99.99,FreeWX-Wi 1.01,2013-05-09 10:34:00,
2013-05-09 05:39:00,56.8,54.9,27.67,North,-999,0.0,0.0,93,0.00,,,-99.99,FreeWX-Wi 1.01,2013-05-09 10:39:00,
2013-05-09 05:44:00,56.8,54.9,27.67,North,-999,0.0,0.0,93,0.00,,,-99.99,FreeWX-Wi 1.01,2013-05-09 10:44:00,
2013-05-09 05:49:00,56.8,54.5,27.70,North,-999,0.0,0.0,92,0.00,,,-99.99,FreeWX-Wi 1.01,2013-05-09 10:49:00,
2013-05-09 05:54:00,57.0,54.7,27.70,North,-999,0.0,0.0,92,0.00,,,-99.99,FreeWX-Wi 1.01,2013-05-09 10:54:00,
2013-05-09 05:59:00,57.0,54.7,27.70,North,-999,0.0,0.0,92,0.00,,,-99.99,FreeWX-Wi 1.01,2013-05-09 10:59:00,
2013-05-09 06:04:00,57.0,54.5,27.70,North,-999,0.0,0.0,91,0.00,,,-99.99,FreeWX-Wi 1.01,2013-05-09 11:04:00,
2013-05-09 06:09:00,57.0,54.5,27.70,North,-999,0.0,0.0,91,0.00,,,-99.99,FreeWX-Wi 1.01,2013-05-09 11:09:00,
2013-05-09 06:14:00,57.0,54.5,27.70,North,-999,0.0,0.0,91,0.00,,,-99.99,FreeWX-Wi 1.01,2013-05-09 11:14:00,
2013-05-09 06:20:00,57.0,54.5,27.70,North,-999,0.0,0.0,91,0.00,,,-99.99,FreeWX-Wi 1.01,2013-05-09 11:20:00,
2013-05-09 06:25:00,57.0,54.1,27.70,North,-999,0.0,0.0,90,0.00,,,-99.99,FreeWX-Wi 1.01,2013-05-09 11:25:00,
2013-05-09 06:30:00,56.8,54.0,27.70,North,-999,0.0,0.0,90,0.00,,,-99.99,FreeWX-Wi 1.01,2013-05-09 11:30:00,
2013-05-09 06:35:00,56.8,54.0,27.70,North,-999,0.0,0.0,90,0.00,,,-99.99,FreeWX-Wi 1.01,2013-05-09 11:35:00,
2013-05-09 06:41:00,57.0,53.8,27.70,North,-999,0.0,0.0,89,0.00,,,-99.99,FreeWX-Wi 1.01,2013-05-09 11:41:00,
2013-05-09 06:46:00,56.8,54.0,27.70,North,-999,0.0,0.0,90,0.00,,,-99.99,FreeWX-Wi 1.01,2013-05-09 11:46:00,
2013-05-09 06:51:00,56.8,54.0,27.67,North,-999,0.0,0.0,90,0.00,,,-99.99,FreeWX-Wi 1.01,2013-05-09 11:51:00,
2013-05-09 06:56:00,56.8,54.0,27.67,North,-999,0.0,0.0,90,0.00,,,-99.99,FreeWX-Wi 1.01,2013-05-09 11:56:00,
2013-05-09 07:01:00,56.8,54.0,27.67,North,-999,0.0,0.0,90,0.00,,,-99.99,FreeWX-Wi 1.01,2013-05-09 12:01:00,
2013-05-09 07:07:00,56.8,54.0,27.70,North,-999,0.0,0.0,90,0.00,,,-99.99,FreeWX-Wi 1.01,2013-05-09 12:07:00,
2013-05-09 07:12:00,56.8,54.0,27.70,North,-999,0.0,0.0,90,0.00,,,-99.99,FreeWX-Wi 1.01,2013-05-09 12:12:00,
2013-05-09 07:17:00,57.0,53.8,27.70,North,-999,0.0,0.0,89,0.00,,,-99.99,FreeWX-Wi 1.01,2013-05-09 12:17:00,
2013-05-09 07:22:00,57.0,53.8,27.70,North,-999,0.0,0.0,89,0.00,,,-99.99,FreeWX-Wi 1.01,2013-05-09 12:22:00,
2013-05-09 07:27:00,57.0,53.8,27.70,North,-999,0.0,0.0,89,0.00,,,-99.99,FreeWX-Wi 1.01,2013-05-09 12:27:00,
2013-05-09 07:32:00,57.0,53.8,27.70,North,-999,0.0,0.0,89,0.00,,,-99.99,FreeWX-Wi 1.01,2013-05-09 12:32:00,
2013-05-09 07:37:00,57.2,54.0,27.70,North,-999,0.0,0.0,89,0.00,,,-99.99,FreeWX-Wi 1.01,2013-05-09 12:37:00,
2013-05-09 07:42:00,57.2,54.3,27.70,North,-999,0.0,0.0,90,0.00,,,-99.99,FreeWX-Wi 1.01,2013-05-09 12:42:00,
2013-05-09 07:47:00,57.2,54.3,27.70,North,-999,0.0,0.0,90,0.00,,,-99.99,FreeWX-Wi 1.01,2013-05-09 12:47:00,
2013-05-09 07:52:00,57.2,54.3,27.70,North,-999,0.0,0.0,90,0.00,,,-99.99,FreeWX-Wi 1.01,2013-05-09 12:52:00,
2013-05-09 07:57:00,57.2,54.3,27.70,North,-999,0.0,0.0,90,0.00,,,-99.99,FreeWX-Wi 1.01,2013-05-09 12:57:00,
2013-05-09 08:03:00,57.2,54.0,27.70,North,-999,0.0,0.0,89,0.00,,,-99.99,FreeWX-Wi 1.01,2013-05-09 13:03:00,
2013-05-09 08:08:00,57.2,54.3,27.70,North,-999,0.0,0.0,90,0.00,,,-99.99,FreeWX-Wi 1.01,2013-05-09 13:08:00,
2013-05-09 08:13:00,57.2,54.0,27.70,North,-999,0.0,0.0,89,0.00,,,-99.99,FreeWX-Wi 1.01,2013-05-09 13:13:00,
2013-05-09 08:18:00,57.2,54.0,27.70,North,-999,0.0,0.0,89,0.00,,,-99.99,FreeWX-Wi 1.01,2013-05-09 13:18:00,
2013-05-09 08:23:00,57.0,54.5,27.70,North,-999,0.0,0.0,91,0.00,,,-99.99,FreeWX-Wi 1.01,2013-05-09 13:23:00,
2013-05-09 08:28:00,56.8,54.5,27.70,North,-999,0.0,0.0,92,0.00,,,-99.99,FreeWX-Wi 1.01,2013-05-09 13:28:00,
2013-05-09 08:33:00,56.8,54.9,27.70,North,-999,0.0,0.0,93,0.00,,,-99.99,FreeWX-Wi 1.01,2013-05-09 13:33:00,
2013-05-09 08:38:00,56.8,55.0,27.70,North,-999,0.0,0.0,94,0.00,,,-99.99,FreeWX-Wi 1.01,2013-05-09 13:38:00,
2013-05-09 08:44:00,56.8,55.0,27.70,North,-999,0.0,0.0,94,0.00,,,-99.99,FreeWX-Wi 1.01,2013-05-09 13:44:00,
2013-05-09 08:49:00,56.8,55.4,27.70,North,-999,0.0,0.0,95,0.00,,,-99.99,FreeWX-Wi 1.01,2013-05-09 13:49:00,
2013-05-09 08:54:00,56.8,55.4,27.70,North,-999,0.0,0.0,95,0.00,,,-99.99,FreeWX-Wi 1.01,2013-05-09 13:54:00,
2013-05-09 08:59:00,56.8,55.4,27.70,North,-999,0.0,0.0,95,0.00,,,-99.99,FreeWX-Wi 1.01,2013-05-09 13:59:00,
2013-05-09 09:04:00,57.0,55.6,27.70,North,-999,0.0,0.0,95,0.00,,,-99.99,FreeWX-Wi 1.01,2013-05-09 14:04:00,
2013-05-09 09:09:00,57.0,55.6,27.70,North,-999,0.0,0.0,95,0.00,,,-99.99,FreeWX-Wi 1.01,2013-05-09 14:09:00,
2013-05-09 09:14:00,57.0,55.6,27.70,North,-999,0.0,0.0,95,0.00,,,-99.99,FreeWX-Wi 1.01,2013-05-09 14:14:00,
2013-05-09 09:19:00,57.2,55.8,27.70,North,-999,0.0,0.0,95,0.00,,,-99.99,FreeWX-Wi 1.01,2013-05-09 14:19:00,
2013-05-09 10:11:00,57.2,56.3,27.70,North,-999,0.0,0.0,97,0.00,,,-99.99,FreeWX-Wi 1.01,2013-05-09 15:11:00,
2013-05-09 10:16:00,57.2,56.3,27.70,North,-999,0.0,0.0,97,0.00,,,-99.99,FreeWX-Wi 1.01,2013-05-09 15:16:00,
2013-05-09 10:21:00,57.4,56.5,27.70,North,-999,0.0,0.0,97,0.00,,,-99.99,FreeWX-Wi 1.01,2013-05-09 15:21:00,
2013-05-09 10:26:00,57.6,56.5,27.70,North,-999,0.0,0.0,96,0.00,,,-99.99,FreeWX-Wi 1.01,2013-05-09 15:26:00,
2013-05-09 10:31:00,57.6,56.5,27.70,North,-999,0.0,0.0,96,0.00,,,-99.99,FreeWX-Wi 1.01,2013-05-09 15:31:00,
2013-05-09 10:36:00,57.6,56.5,27.70,North,-999,0.0,0.0,96,0.00,,,-99.99,FreeWX-Wi 1.01,2013-05-09 15:36:00,
2013-05-09 10:41:00,57.6,56.7,27.70,North,-999,0.0,0.0,97,0.00,,,-99.99,FreeWX-Wi 1.01,2013-05-09 15:41:00,
2013-05-09 10:46:00,57.6,56.5,27.70,North,-999,0.0,0.0,96,0.00,,,-99.99,FreeWX-Wi 1.01,2013-05-09 15:46:00,
2013-05-09 10:51:00,57.6,56.5,27.70,North,-999,0.0,0.0,96,0.00,,,-99.99,FreeWX-Wi 1.01,2013-05-09 15:51:00,
2013-05-09 10:56:00,57.6,56.5,27.70,North,-999,0.0,0.0,96,0.00,,,-99.99,FreeWX-Wi 1.01,2013-05-09 15:56:00,
2013-05-09 11:01:00,57.6,56.5,27.70,North,-999,0.0,0.0,96,0.00,,,-99.99,FreeWX-Wi 1.01,2013-05-09 16:01:00,
2013-05-09 11:07:00,57.6,56.5,27.70,North,-999,0.0,0.0,96,0.00,,,-99.99,FreeWX-Wi 1.01,2013-05-09 16:07:00,
2013-05-09 11:12:00,57.6,56.5,27.70,North,-999,0.0,0.0,96,0.00,,,-99.99,FreeWX-Wi 1.01,2013-05-09 16:12:00,
2013-05-09 11:17:00,57.6,56.7,27.70,North,-999,0.0,0.0,97,0.00,,,-99.99,FreeWX-Wi 1.01,2013-05-09 16:17:00,
2013-05-09 11:22:00,57.6,56.7,27.70,North,-999,0.0,0.0,97,0.00,,,-99.99,FreeWX-Wi 1.01,2013-05-09 16:22:00,
2013-05-09 11:27:00,57.6,57.0,27.70,North,-999,0.0,0.0,98,0.00,,,-99.99,FreeWX-Wi 1.01,2013-05-09 16:27:00,
2013-05-09 11:32:00,57.6,57.0,27.70,North,-999,0.0,0.0,98,0.00,,,-99.99,FreeWX-Wi 1.01,2013-05-09 16:32:00,
2013-05-09 11:37:00,57.7,57.2,27.70,North,-999,0.0,0.0,98,0.04,,,-99.99,FreeWX-Wi 1.01,2013-05-09 16:37:00,
2013-05-09 11:42:00,57.7,57.2,27.70,North,-999,0.0,0.0,98,0.04,,,-99.99,FreeWX-Wi 1.01,2013-05-09 16:42:00,
2013-05-09 11:47:00,57.7,57.2,27.70,North,-999,0.0,0.0,98,0.04,,,-99.99,FreeWX-Wi 1.01,2013-05-09 16:47:00,
2013-05-09 11:52:00,57.9,57.4,27.70,North,-999,0.0,0.0,98,0.08,,,-99.99,FreeWX-Wi 1.01,2013-05-09 16:52:00,
2013-05-09 11:57:00,57.9,57.4,27.70,North,-999,0.0,0.0,98,0.08,,,-99.99,FreeWX-Wi 1.01,2013-05-09 16:57:00,
2013-05-09 12:02:00,57.7,57.2,27.70,North,-999,0.0,0.0,98,0.08,,,-99.99,FreeWX-Wi 1.01,2013-05-09 17:02:00,
2013-05-09 12:07:00,57.7,57.2,27.67,North,-999,0.0,0.0,98,0.08,,,-99.99,FreeWX-Wi 1.01,2013-05-09 17:07:00,
2013-05-09 12:13:00,57.6,57.0,27.67,North,-999,0.0,0.0,98,0.12,,,-99.99,FreeWX-Wi 1.01,2013-05-09 17:13:00,
2013-05-09 12:18:00,57.6,57.0,27.67,North,-999,0.0,0.0,98,0.12,,,-99.99,FreeWX-Wi 1.01,2013-05-09 17:18:00,
2013-05-09 12:23:00,57.6,57.0,27.70,North,-999,0.0,0.0,98,0.12,,,-99.99,FreeWX-Wi 1.01,2013-05-09 17:23:00,
2013-05-09 12:28:00,57.6,57.0,27.70,North,-999,0.0,0.0,98,0.12,,,-99.99,FreeWX-Wi 1.01,2013-05-09 17:28:00,
2013-05-09 12:33:00,56.8,56.3,27.70,North,-999,0.0,0.0,98,0.00,,,-99.99,FreeWX-Wi 1.01,2013-05-09 17:33:00,
2013-05-09 12:38:00,56.5,55.9,27.70,ENE,64,9.0,10.5,98,0.00,,,-99.99,FreeWX-Wi 1.01,2013-05-09 17:38:00,
2013-05-09 12:43:00,56.7,56.1,27.70,ENE,64,9.0,0.0,98,0.04,,,-99.99,FreeWX-Wi 1.01,2013-05-09 17:43:00,
2013-05-09 12:48:00,56.7,56.1,27.67,ENE,64,9.0,0.0,98,0.04,,,-99.99,FreeWX-Wi 1.01,2013-05-09 17:48:00,
2013-05-09 12:53:00,56.8,56.3,27.67,ENE,64,9.0,0.0,98,0.04,,,-99.99,FreeWX-Wi 1.01,2013-05-09 17:53:00,
2013-05-09 12:59:00,56.8,56.3,27.67,ENE,64,9.0,0.0,98,0.04,,,-99.99,FreeWX-Wi 1.01,2013-05-09 17:59:00,
2013-05-09 13:04:00,56.5,55.9,27.67,ENE,64,9.0,0.0,98,0.04,,,-99.99,FreeWX-Wi 1.01,2013-05-09 18:04:00,
2013-05-09 13:09:00,56.3,55.8,27.67,ENE,64,9.0,0.0,98,0.04,,,-99.99,FreeWX-Wi 1.01,2013-05-09 18:09:00,
2013-05-09 13:14:00,55.9,55.0,27.67,ENE,64,9.0,0.0,97,0.04,,,-99.99,FreeWX-Wi 1.01,2013-05-09 18:14:00,
2013-05-09 13:19:00,56.1,55.0,27.67,ENE,64,9.0,0.0,96,0.04,,,-99.99,FreeWX-Wi 1.01,2013-05-09 18:19:00,
2013-05-09 13:24:00,56.1,55.0,27.67,ENE,64,9.0,0.0,96,0.04,,,-99.99,FreeWX-Wi 1.01,2013-05-09 18:24:00,
2013-05-09 13:29:00,55.9,54.5,27.67,ENE,64,9.0,0.0,95,0.04,,,-99.99,FreeWX-Wi 1.01,2013-05-09 18:29:00,
2013-05-09 13:34:00,56.3,55.2,27.67,ENE,64,9.0,0.0,96,0.04,,,-99.99,FreeWX-Wi 1.01,2013-05-09 18:34:00,
2013-05-09 13:39:00,56.5,55.6,27.67,ENE,64,9.0,0.0,97,0.00,,,-99.99,FreeWX-Wi 1.01,2013-05-09 18:39:00,
2013-05-09 13:44:00,56.5,55.6,27.67,ENE,64,9.0,0.0,97,0.00,,,-99.99,FreeWX-Wi 1.01,2013-05-09 18:44:00,
2013-05-09 13:49:00,55.9,54.5,27.67,ENE,64,9.0,0.0,95,0.04,,,-99.99,FreeWX-Wi 1.01,2013-05-09 18:49:00,
2013-05-09 13:54:00,56.1,54.7,27.67,ENE,64,9.0,0.0,95,0.04,,,-99.99,FreeWX-Wi 1.01,2013-05-09 18:54:00,
2013-05-09 14:00:00,55.9,54.5,27.67,ENE,64,9.0,0.0,95,0.04,,,-99.99,FreeWX-Wi 1.01,2013-05-09 19:00:00,
2013-05-09 14:05:00,55.6,54.1,27.67,ENE,64,9.0,0.0,95,0.04,,,-99.99,FreeWX-Wi 1.01,2013-05-09 19:05:00,
2013-05-09 14:10:00,55.6,54.1,27.67,ENE,64,9.0,0.0,95,0.04,,,-99.99,FreeWX-Wi 1.01,2013-05-09 19:10:00,
2013-05-09 14:15:00,55.6,54.0,27.67,ENE,64,9.0,0.0,94,0.04,,,-99.99,FreeWX-Wi 1.01,2013-05-09 19:15:00,
2013-05-09 14:20:00,55.4,53.1,27.67,ENE,64,9.0,0.0,92,0.04,,,-99.99,FreeWX-Wi 1.01,2013-05-09 19:20:00,
2013-05-09 14:25:00,55.8,53.8,27.67,ENE,64,9.0,0.0,93,0.04,,,-99.99,FreeWX-Wi 1.01,2013-05-09 19:25:00,
2013-05-09 14:30:00,55.8,53.8,27.67,ENE,64,9.0,0.0,93,0.04,,,-99.99,FreeWX-Wi 1.01,2013-05-09 19:30:00,
2013-05-09 14:35:00,56.1,54.7,27.67,ENE,64,9.0,0.0,95,0.04,,,-99.99,FreeWX-Wi 1.01,2013-05-09 19:35:00,
2013-05-09 14:40:00,55.8,54.3,27.67,ENE,64,9.0,0.0,95,0.04,,,-99.99,FreeWX-Wi 1.01,2013-05-09 19:40:00,
2013-05-09 14:45:00,55.6,54.1,27.67,ENE,64,9.0,0.0,95,0.00,,,-99.99,FreeWX-Wi 1.01,2013-05-09 19:45:00,
2013-05-09 14:51:00,55.6,54.1,27.67,ENE,64,9.0,0.0,95,0.00,,,-99.99,FreeWX-Wi 1.01,2013-05-09 19:51:00,
2013-05-09 14:56:00,55.4,54.0,27.67,ENE,64,9.0,0.0,95,0.00,,,-99.99,FreeWX-Wi 1.01,2013-05-09 19:56:00,
2013-05-09 15:01:00,55.4,53.8,27.67,ENE,64,9.0,0.0,94,0.00,,,-99.99,FreeWX-Wi 1.01,2013-05-09 20:01:00,
2013-05-09 15:06:00,55.4,53.4,27.67,ENE,64,9.0,0.0,93,0.00,,,-99.99,FreeWX-Wi 1.01,2013-05-09 20:06:00,
2013-05-09 15:11:00,55.8,54.1,27.67,ENE,64,9.0,0.0,94,0.00,,,-99.99,FreeWX-Wi 1.01,2013-05-09 20:11:00,
2013-05-09 15:16:00,55.8,54.1,27.67,ENE,64,9.0,0.0,94,0.00,,,-99.99,FreeWX-Wi 1.01,2013-05-09 20:16:00,
2013-05-09 15:22:00,55.9,54.5,27.67,ENE,64,9.0,0.0,95,0.00,,,-99.99,FreeWX-Wi 1.01,2013-05-09 20:22:00,
2013-05-09 15:27:00,55.9,54.5,27.67,ENE,64,9.0,0.0,95,0.00,,,-99.99,FreeWX-Wi 1.01,2013-05-09 20:27:00,
2013-05-09 15:32:00,55.4,53.8,27.67,ENE,64,9.0,0.0,94,0.00,,,-99.99,FreeWX-Wi 1.01,2013-05-09 20:32:00,
2013-05-09 15:38:00,55.0,53.6,27.67,ENE,64,9.0,0.0,95,0.00,,,-99.99,FreeWX-Wi 1.01,2013-05-09 20:38:00,
2013-05-09 15:43:00,55.2,53.6,27.67,ENE,64,9.0,0.0,94,0.00,,,-99.99,FreeWX-Wi 1.01,2013-05-09 20:43:00,
2013-05-09 15:48:00,54.7,52.2,27.67,ENE,64,9.0,0.0,91,0.04,,,-99.99,FreeWX-Wi 1.01,2013-05-09 20:48:00,
2013-05-09 15:53:00,55.0,53.1,27.67,ENE,64,9.0,0.0,93,0.04,,,-99.99,FreeWX-Wi 1.01,2013-05-09 20:53:00,
2013-05-09 15:58:00,55.0,53.1,27.67,ENE,64,9.0,0.0,93,0.04,,,-99.99,FreeWX-Wi 1.01,2013-05-09 20:58:00,
2013-05-09 16:03:00,54.9,53.2,27.67,ENE,64,9.0,0.0,94,0.04,,,-99.99,FreeWX-Wi 1.01,2013-05-09 21:03:00,
2013-05-09 16:08:00,54.5,52.5,27.67,ENE,64,9.0,0.0,93,0.04,,,-99.99,FreeWX-Wi 1.01,2013-05-09 21:08:00,
2013-05-09 16:14:00,54.5,52.2,27.67,ENE,64,9.0,0.0,92,0.04,,,-99.99,FreeWX-Wi 1.01,2013-05-09 21:14:00,
2013-05-09 16:19:00,54.5,52.2,27.67,ENE,64,9.0,0.0,92,0.04,,,-99.99,FreeWX-Wi 1.01,2013-05-09 21:19:00,
2013-05-09 16:24:00,54.5,52.2,27.67,ENE,64,9.0,0.0,92,0.04,,,-99.99,FreeWX-Wi 1.01,2013-05-09 21:24:00,
2013-05-09 16:29:00,54.7,52.7,27.67,ENE,64,9.0,0.0,93,0.04,,,-99.99,FreeWX-Wi 1.01,2013-05-09 21:29:00,
2013-05-09 16:34:00,54.5,52.0,27.67,ENE,64,9.0,0.0,91,0.04,,,-99.99,FreeWX-Wi 1.01,2013-05-09 21:34:00,
2013-05-09 16:39:00,54.5,52.0,27.67,ENE,64,9.0,0.0,91,0.04,,,-99.99,FreeWX-Wi 1.01,2013-05-09 21:39:00,
2013-05-09 16:44:00,54.5,52.2,27.67,ENE,64,9.0,0.0,92,0.04,,,-99.99,FreeWX-Wi 1.01,2013-05-09 21:44:00,
2013-05-09 16:49:00,54.5,52.5,27.67,ENE,64,9.0,0.0,93,0.00,,,-99.99,FreeWX-Wi 1.01,2013-05-09 21:49:00,
2013-05-09 16:55:00,54.5,52.5,27.67,ENE,64,9.0,0.0,93,0.00,,,-99.99,FreeWX-Wi 1.01,2013-05-09 21:55:00,
2013-05-09 17:00:00,54.3,52.0,27.67,ENE,64,9.0,0.0,92,0.00,,,-99.99,FreeWX-Wi 1.01,2013-05-09 22:00:00,
2013-05-09 17:05:00,54.5,52.0,27.67,ENE,64,9.0,0.0,91,0.00,,,-99.99,FreeWX-Wi 1.01,2013-05-09 22:05:00,
2013-05-09 17:10:00,54.5,52.2,27.67,ENE,64,9.0,0.0,92,0.00,,,-99.99,FreeWX-Wi 1.01,2013-05-09 22:10:00,
2013-05-09 17:15:00,54.3,51.8,27.67,ENE,64,9.0,0.0,91,0.00,,,-99.99,FreeWX-Wi 1.01,2013-05-09 22:15:00,
2013-05-09 17:20:00,54.3,51.4,27.67,ENE,64,9.0,0.0,90,0.00,,,-99.99,FreeWX-Wi 1.01,2013-05-09 22:20:00,
2013-05-09 17:25:00,54.5,51.1,27.67,ENE,64,9.0,0.0,88,0.00,,,-99.99,FreeWX-Wi 1.01,2013-05-09 22:25:00,
2013-05-09 17:31:00,54.5,51.3,27.67,ENE,64,9.0,0.0,89,0.00,,,-99.99,FreeWX-Wi 1.01,2013-05-09 22:31:00,
2013-05-09 17:36:00,54.7,52.3,27.67,ENE,64,9.0,0.0,92,0.00,,,-99.99,FreeWX-Wi 1.01,2013-05-09 22:36:00,
2013-05-09 17:41:00,54.7,52.3,27.67,ENE,64,9.0,0.0,92,0.00,,,-99.99,FreeWX-Wi 1.01,2013-05-09 22:41:00,
2013-05-09 17:46:00,54.5,52.2,27.67,ENE,64,9.0,0.0,92,0.00,,,-99.99,FreeWX-Wi 1.01,2013-05-09 22:46:00,
2013-05-09 17:51:00,54.5,52.5,27.70,ENE,64,9.0,0.0,93,0.00,,,-99.99,FreeWX-Wi 1.01,2013-05-09 22:51:00,
2013-05-09 17:56:00,54.0,52.0,27.70,ENE,64,9.0,0.0,93,0.00,,,-99.99,FreeWX-Wi 1.01,2013-05-09 22:56:00,
2013-05-09 18:01:00,53.8,51.4,27.70,ENE,64,9.0,0.0,92,0.00,,,-99.99,FreeWX-Wi 1.01,2013-05-09 23:01:00,
2013-05-09 18:06:00,54.0,51.6,27.70,ENE,64,9.0,0.0,92,0.00,,,-99.99,FreeWX-Wi 1.01,2013-05-09 23:06:00,
2013-05-09 18:11:00,53.6,51.3,27.70,ENE,64,9.0,0.0,92,0.00,,,-99.99,FreeWX-Wi 1.01,2013-05-09 23:11:00,
2013-05-09 18:16:00,53.6,51.3,27.70,ENE,64,9.0,0.0,92,0.00,,,-99.99,FreeWX-Wi 1.01,2013-05-09 23:16:00,
2013-05-09 18:22:00,53.6,51.3,27.70,ENE,64,9.0,0.0,92,0.00,,,-99.99,FreeWX-Wi 1.01,2013-05-09 23:22:00,
2013-05-09 18:27:00,53.2,50.7,27.70,ENE,64,9.0,0.0,91,0.00,,,-99.99,FreeWX-Wi 1.01,2013-05-09 23:27:00,
2013-05-09 18:32:00,53.1,49.8,27.70,ENE,64,9.0,0.0,89,0.00,,,-99.99,FreeWX-Wi 1.01,2013-05-09 23:32:00,
2013-05-09 18:37:00,52.9,49.6,27.73,ENE,64,9.0,0.0,89,0.00,,,-99.99,FreeWX-Wi 1.01,2013-05-09 23:37:00,
2013-05-09 18:42:00,52.5,49.5,27.73,ENE,64,9.0,0.0,89,0.00,,,-99.99,FreeWX-Wi 1.01,2013-05-09 23:42:00,
2013-05-09 18:47:00,52.2,48.4,27.73,ENE,64,9.0,0.0,87,0.00,,,-99.99,FreeWX-Wi 1.01,2013-05-09 23:47:00,
2013-05-09 18:53:00,51.8,48.0,27.73,ENE,64,9.0,0.0,87,0.00,,,-99.99,FreeWX-Wi 1.01,2013-05-09 23:53:00,
2013-05-09 18:58:00,51.8,48.4,27.73,ENE,64,9.0,0.0,88,0.00,,,-99.99,FreeWX-Wi 1.01,2013-05-09 23:58:00,
2013-05-09 19:03:00,51.8,48.7,27.76,ENE,64,9.0,0.0,89,0.00,,,-99.99,FreeWX-Wi 1.01,2013-05-10 00:03:00,
2013-05-09 19:08:00,51.6,48.2,27.76,ENE,64,9.0,0.0,88,0.00,,,-99.99,FreeWX-Wi 1.01,2013-05-10 00:08:00,
2013-05-09 19:13:00,51.4,48.0,27.76,ENE,64,9.0,0.0,88,0.00,,,-99.99,FreeWX-Wi 1.01,2013-05-10 00:13:00,
2013-05-09 19:18:00,51.3,47.3,27.76,ENE,64,9.0,0.0,86,0.00,,,-99.99,FreeWX-Wi 1.01,2013-05-10 00:18:00,
2013-05-09 19:23:00,51.3,48.2,27.76,ENE,64,9.0,0.0,89,0.00,,,-99.99,FreeWX-Wi 1.01,2013-05-10 00:23:00,
2013-05-09 19:28:00,51.1,48.2,27.76,ENE,64,9.0,0.0,90,0.00,,,-99.99,FreeWX-Wi 1.01,2013-05-10 00:28:00,
2013-05-09 19:33:00,50.9,48.0,27.76,ENE,64,9.0,0.0,90,0.00,,,-99.99,FreeWX-Wi 1.01,2013-05-10 00:33:00,
2013-05-09 19:39:00,50.7,47.3,27.76,ENE,64,9.0,0.0,88,0.00,,,-99.99,FreeWX-Wi 1.01,2013-05-10 00:39:00,
2013-05-09 19:44:00,50.5,47.5,27.76,ENE,64,9.0,0.0,89,0.00,,,-99.99,FreeWX-Wi 1.01,2013-05-10 00:44:00,
2013-05-09 19:49:00,50.5,47.1,27.76,ENE,64,9.0,0.0,88,0.00,,,-99.99,FreeWX-Wi 1.01,2013-05-10 00:49:00,
2013-05-09 19:54:00,50.0,46.6,27.76,ENE,64,9.0,0.0,88,0.00,,,-99.99,FreeWX-Wi 1.01,2013-05-10 00:54:00,
2013-05-09 20:00:00,49.6,46.6,27.76,ENE,64,9.0,0.0,89,0.00,,,-99.99,FreeWX-Wi 1.01,2013-05-10 01:00:00,
2013-05-09 20:05:00,49.5,46.4,27.76,ENE,64,9.0,0.0,89,0.00,,,-99.99,FreeWX-Wi 1.01,2013-05-10 01:05:00,
2013-05-09 20:10:00,49.5,46.6,27.76,ENE,64,9.0,0.0,90,0.00,,,-99.99,FreeWX-Wi 1.01,2013-05-10 01:10:00,
2013-05-09 20:15:00,49.3,46.2,27.76,ENE,64,9.0,0.0,89,0.00,,,-99.99,FreeWX-Wi 1.01,2013-05-10 01:15:00,
2013-05-09 20:20:00,49.3,45.9,27.76,ENE,64,9.0,0.0,88,0.00,,,-99.99,FreeWX-Wi 1.01,2013-05-10 01:20:00,
2013-05-09 20:25:00,49.1,46.2,27.76,ENE,64,9.0,0.0,90,0.00,,,-99.99,FreeWX-Wi 1.01,2013-05-10 01:25:00,
2013-05-09 20:30:00,48.9,46.8,27.76,ENE,64,9.0,0.0,92,0.00,,,-99.99,FreeWX-Wi 1.01,2013-05-10 01:30:00,
2013-05-09 20:35:00,48.7,46.6,27.79,ENE,64,9.0,0.0,92,0.00,,,-99.99,FreeWX-Wi 1.01,2013-05-10 01:35:00,
2013-05-09 20:40:00,48.6,46.4,27.79,ENE,64,9.0,0.0,92,0.00,,,-99.99,FreeWX-Wi 1.01,2013-05-10 01:40:00,
2013-05-09 20:45:00,48.4,46.2,27.79,ENE,64,9.0,0.0,92,0.00,,,-99.99,FreeWX-Wi 1.01,2013-05-10 01:45:00,
2013-05-09 20:51:00,48.2,45.3,27.79,ENE,64,9.0,0.0,90,0.00,,,-99.99,FreeWX-Wi 1.01,2013-05-10 01:51:00,
2013-05-09 20:56:00,48.0,45.5,27.79,ENE,64,9.0,0.0,91,0.00,,,-99.99,FreeWX-Wi 1.01,2013-05-10 01:56:00,
2013-05-09 21:01:00,47.8,45.7,27.79,ENE,64,9.0,0.0,92,0.00,,,-99.99,FreeWX-Wi 1.01,2013-05-10 02:01:00,
2013-05-09 21:06:00,47.8,45.7,27.79,ENE,64,9.0,0.0,92,0.00,,,-99.99,FreeWX-Wi 1.01,2013-05-10 02:06:00,
2013-05-09 21:11:00,47.7,45.5,27.79,ENE,64,9.0,0.0,92,0.00,,,-99.99,FreeWX-Wi 1.01,2013-05-10 02:11:00,
2013-05-09 21:16:00,47.5,45.3,27.79,ENE,64,9.0,0.0,92,0.00,,,-99.99,FreeWX-Wi 1.01,2013-05-10 02:16:00,
2013-05-09 21:21:00,47.7,45.7,27.79,ENE,64,9.0,0.0,93,0.00,,,-99.99,FreeWX-Wi 1.01,2013-05-10 02:21:00,
2013-05-09 21:26:00,47.5,45.5,27.79,ENE,64,9.0,0.0,93,0.00,,,-99.99,FreeWX-Wi 1.01,2013-05-10 02:26:00,
2013-05-09 21:31:00,47.5,45.9,27.79,ENE,64,9.0,0.0,94,0.00,,,-99.99,FreeWX-Wi 1.01,2013-05-10 02:31:00,
2013-05-09 21:36:00,47.5,45.5,27.79,ENE,64,9.0,0.0,93,0.00,,,-99.99,FreeWX-Wi 1.01,2013-05-10 02:36:00,
2013-05-09 21:41:00,47.5,45.9,27.79,ENE,64,9.0,0.0,94,0.00,,,-99.99,FreeWX-Wi 1.01,2013-05-10 02:41:00,
2013-05-09 21:46:00,47.3,45.3,27.79,ENE,64,9.0,0.0,93,0.00,,,-99.99,FreeWX-Wi 1.01,2013-05-10 02:46:00,
2013-05-09 21:51:00,47.3,45.3,27.79,ENE,64,9.0,0.0,93,0.00,,,-99.99,FreeWX-Wi 1.01,2013-05-10 02:51:00,
2013-05-09 21:56:00,47.1,45.1,27.79,ENE,64,9.0,0.0,93,0.00,,,-99.99,FreeWX-Wi 1.01,2013-05-10 02:56:00,
2013-05-09 22:01:00,47.1,45.1,27.79,ENE,64,9.0,0.0,93,0.00,,,-99.99,FreeWX-Wi 1.01,2013-05-10 03:01:00,
2013-05-09 22:07:00,47.1,45.1,27.79,ENE,64,9.0,0.0,93,0.00,,,-99.99,FreeWX-Wi 1.01,2013-05-10 03:07:00,
2013-05-09 22:12:00,47.1,45.1,27.79,ENE,64,9.0,0.0,93,0.00,,,-99.99,FreeWX-Wi 1.01,2013-05-10 03:12:00,
2013-05-09 22:17:00,47.1,45.1,27.79,ENE,64,9.0,0.0,93,0.00,,,-99.99,FreeWX-Wi 1.01,2013-05-10 03:17:00,
2013-05-09 22:22:00,47.1,45.1,27.79,ENE,64,9.0,0.0,93,0.00,,,-99.99,FreeWX-Wi 1.01,2013-05-10 03:22:00,
2013-05-09 22:27:00,47.1,45.1,27.79,ENE,64,9.0,0.0,93,0.00,,,-99.99,FreeWX-Wi 1.01,2013-05-10 03:27:00,
2013-05-09 22:32:00,47.1,45.1,27.79,ENE,64,9.0,0.0,93,0.00,,,-99.99,FreeWX-Wi 1.01,2013-05-10 03:32:00,
2013-05-09 22:37:00,47.1,45.0,27.79,ENE,64,9.0,0.0,92,0.00,,,-99.99,FreeWX-Wi 1.01,2013-05-10 03:37:00,
2013-05-09 22:42:00,46.9,44.8,27.79,ENE,64,9.0,0.0,92,0.00,,,-99.99,FreeWX-Wi 1.01,2013-05-10 03:42:00,
2013-05-09 22:47:00,47.1,45.0,27.79,ENE,64,9.0,0.0,92,0.00,,,-99.99,FreeWX-Wi 1.01,2013-05-10 03:47:00,
2013-05-09 22:52:00,46.9,44.8,27.79,ENE,64,9.0,0.0,92,0.00,,,-99.99,FreeWX-Wi 1.01,2013-05-10 03:52:00,
2013-05-09 22:57:00,46.9,44.8,27.79,ENE,64,9.0,0.0,92,0.00,,,-99.99,FreeWX-Wi 1.01,2013-05-10 03:57:00,
2013-05-09 23:02:00,46.9,44.8,27.79,ENE,64,9.0,0.0,92,0.00,,,-99.99,FreeWX-Wi 1.01,2013-05-10 04:02:00,
2013-05-09 23:07:00,46.8,44.6,27.79,ENE,64,9.0,0.0,92,0.00,,,-99.99,FreeWX-Wi 1.01,2013-05-10 04:07:00,
2013-05-09 23:12:00,46.6,44.4,27.79,ENE,64,9.0,0.0,92,0.00,,,-99.99,FreeWX-Wi 1.01,2013-05-10 04:12:00,
2013-05-09 23:18:00,46.6,44.4,27.79,NE,40,10.0,12.3,92,0.00,,,-99.99,FreeWX-Wi 1.01,2013-05-10 04:18:00,
2013-05-09 23:23:00,46.6,44.6,27.79,NE,40,10.0,0.0,93,0.00,,,-99.99,FreeWX-Wi 1.01,2013-05-10 04:23:00,
2013-05-09 23:28:00,46.6,44.6,27.79,NE,40,10.0,0.0,93,0.00,,,-99.99,FreeWX-Wi 1.01,2013-05-10 04:28:00,
2013-05-09 23:33:00,46.4,44.4,27.79,NE,40,10.0,0.0,93,0.00,,,-99.99,FreeWX-Wi 1.01,2013-05-10 04:33:00,
2013-05-09 23:38:00,46.4,44.8,27.79,NE,40,10.0,0.0,94,0.00,,,-99.99,FreeWX-Wi 1.01,2013-05-10 04:38:00,
2013-05-09 23:43:00,46.2,44.6,27.79,NE,40,10.0,0.0,94,0.00,,,-99.99,FreeWX-Wi 1.01,2013-05-10 04:43:00,
2013-05-09 23:48:00,46.2,44.6,27.79,NE,40,10.0,0.0,94,0.00,,,-99.99,FreeWX-Wi 1.01,2013-05-10 04:48:00,
2013-05-09 23:53:00,46.2,44.8,27.79,NE,40,10.0,0.0,95,0.00,,,-99.99,FreeWX-Wi 1.01,2013-05-10 04:53:00,
2013-05-09 23:58:00,46.2,44.8,27.79,NE,40,10.0,0.0,95,0.00,,,-99.99,FreeWX-Wi 1.01,2013-05-10 04:58:00,